Location: *
(31.2983°S, 151.4094°E)
Time: 21:02:21
(UTC+00:00)

SL-16 R/B - Pass Details

Date: 25 August 2019
Orbit: 842 x 848 km, 71.0° (Epoch: 14 September)

Event Time Altitude Azimuth Distance (km) Brightness Sun altitude
Exits shadow 17:53:25 43° 157° (SSE) 1,184 3.0 -31.7°
Drops below altitude 10° 17:57:11 10° 159° (SSE) 2,497 4.9 -30.9°
Sets 17:59:39 0° 159° (SSE) 3,438 5.7 -30.4°
